Flag for Greece Weather past 2 weeks in Ilioupoli, Greece

Now
88 °F

Passing clouds.


Feels Like: 88 °F
Forecast: 79 / 89 °F
Wind: 23 mph from Northeast

Location: Eleftherios Venizelos International Airport

Current Time: Aug 2, 2015 at 1:37:53 PM

Latest Report: Aug 2, 2015 at 12:20 PM


Visibility: N/A

Pressure: 30.01 "Hg

Humidity: 40%

Dew point: 61 °F

Location of IlioupoliLocation

Historic Weather in Ilioupoli — Graph

°F

Ilioupoli temperature yesterday

Maximum temperature yesterday: 91 °F (at 12:50 PM)
Minimum temperature yesterday: 81 °F (at 12:20 AM)
Average temperature yesterday: 86 °F

Past Weeks' High & Low Weather Summary

 TemperatureHumidityPressure
High99 °F (Jul 29, 2:50 PM)83% (Jul 26, 4:50 AM)30.01 "Hg (Jul 26, 4:50 AM)
Low63 °F (Jul 25, 6:20 AM)12% (Jul 20, 4:20 PM)29.68 "Hg (Jul 28, 3:50 AM)
Average84 °F42%29.81 "Hg
* Reported Jul 18 12:20 PM — Aug 2 12:20 PM, Ilioupoli, Weather by CustomWeather, © 2015

Note: Actual official high and low records may vary slightly from our data, if they occured in-between our weather recording intervals... More about our weather records

Advertising

Ilioupoli weather history for previous 24 hours

 ConditionsComfort  
Time TempWeatherWind HumidityBarometerVisibility
12:20 PM
Sun, Aug 2
88 °FPassing clouds.23 mph40%30.01 "HgN/A
11:50 AM86 °FPassing clouds.24 mph43%30.01 "HgN/A
11:20 AM86 °FPassing clouds.25 mph43%30.01 "HgN/A
10:50 AM86 °FPassing clouds.28 mph43%30.01 "HgN/A
10:20 AM84 °FPassing clouds.22 mph48%30.01 "HgN/A
9:50 AM84 °FPassing clouds.18 mph48%30.01 "HgN/A
9:20 AM84 °FPassing clouds.17 mph48%30.01 "HgN/A
8:50 AM82 °FSunny.18 mph51%30.01 "Hg10 mi
8:20 AM81 °FPassing clouds.20 mph58%30.01 "HgN/A
7:50 AM81 °FPassing clouds.15 mph58%29.98 "HgN/A
7:20 AM81 °FClear.14 mph58%29.98 "Hg10 mi
6:50 AM79 °FClear.14 mph58%29.98 "Hg10 mi
6:20 AM81 °FClear.16 mph54%29.98 "Hg10 mi
5:50 AM81 °FPassing clouds.15 mph54%29.98 "HgN/A
5:20 AM81 °FPassing clouds.13 mph54%29.98 "HgN/A
4:50 AM81 °FClear.12 mph54%29.95 "Hg10 mi
4:20 AM81 °FClear.10 mph54%29.95 "Hg10 mi
3:50 AM81 °FPassing clouds.5 mph54%29.95 "HgN/A
3:20 AM81 °FClear.10 mph54%29.95 "Hg10 mi
2:50 AM82 °FClear.12 mph55%29.95 "Hg10 mi
2:20 AM82 °FClear.10 mph55%29.95 "Hg10 mi
1:50 AM82 °FClear.8 mph55%29.98 "Hg10 mi
12:50 AM82 °FClear.12 mph51%29.98 "Hg10 mi
12:20 AM84 °FClear.10 mph48%29.98 "Hg10 mi
11:50 PM
Sat, Aug 1
84 °FClear.13 mph48%29.98 "Hg10 mi
11:20 PM82 °FClear.9 mph51%29.98 "Hg10 mi
10:50 PM84 °FPassing clouds.9 mph48%29.95 "HgN/A
10:20 PM84 °FClear.8 mph51%29.95 "Hg10 mi
9:50 PM84 °FClear.9 mph48%29.95 "Hg10 mi
9:20 PM84 °FSunny.8 mph48%29.92 "Hg10 mi
8:50 PM84 °FPassing clouds.8 mph48%29.92 "HgN/A
7:50 PM86 °FSunny.9 mph46%29.92 "Hg10 mi
7:20 PM88 °FSunny.15 mph40%29.89 "Hg10 mi
6:50 PM88 °FSunny.16 mph43%29.89 "Hg10 mi
5:50 PM88 °FSunny.21 mph46%29.92 "Hg10 mi
5:20 PM88 °FSunny.16 mph46%29.92 "Hg10 mi
4:50 PM90 °FPassing clouds.13 mph43%29.92 "HgN/A
4:20 PM90 °FSunny.20 mph43%29.92 "Hg10 mi
3:50 PM90 °FSunny.21 mph41%29.92 "Hg10 mi
3:20 PM90 °FSunny.21 mph41%29.92 "Hg10 mi
2:50 PM91 °FSunny.22 mph36%29.92 "Hg10 mi
2:20 PM90 °FSunny.24 mph36%29.92 "Hg10 mi
1:50 PM90 °FSunny.21 mph36%29.92 "Hg10 mi
1:20 PM91 °FSunny.20 mph34%29.92 "Hg10 mi
Weather by CustomWeather, © 2015

See weather overviewHow to use our weather pages